Rotterdam The Hague Airport

Airport
ICAO code: 
EHRD
IATA Code: 
RTM
Summary
ICAO Region: 
EUR
Territory: 
Location: 
Rotterdam, Zuid-Holland
Serving: 
Rotterdam
Elevation: 
-15 ft
Coordinates: 
Aerial View: 
51° 57' 24.998" N, 4° 26' 13.999" E
Metar
Observation
EHRD 210425Z AUTO 29006KT 260V350 9999 DZ FEW002 FEW015CB SCT025 BKN029 02/01 Q1034 TEMPO 7000 -SHRA FEW020CB
Station
Rotterdam Airport Zestienhoven
Date/Time
2022-01-21 04:25:00
Wind direction
290°
Wind speed
06 kts
Lowest cloud amount
few clouds
Temperature
2°C
Dew point
1°C
Humidity
93%
QNH
1034 hPa
Weather condition
drizzle

International airport serving Rotterdam and The Hague, The Netherlands. Rotterdam The Hague Airport (formerly: Rotterdam Airport, Vliegveld Zestienhoven), located 3 nm north northwest of Rotterdam, the Netherlands.

Climatology

Temperate Marine climate/Oceanic climate (Köppen climate classification Cfb). Moderately cool summer and comparatively warm winter with a temperature range of only 14°C. Prevailing south-westerly winds from the Atlantic Ocean.

Runways

Designator Length Width Surface Rops
6/24 2200 45 ASP Yes/Yes
Airport map: 
Aerial View: 

Accidents and Serious Incidents at or in the vicinity of EHRD

SKYbrary Partners:

Safety knowledge contributed by: